GEFSSE_500_meanwind_072.txt.gz
Wind_Speed
7 7 7 7 6 6 6 6 6 7 8 8 8 9 9 10 10 10 11 11 11 11 11 10 10 10 9 9 8 7 7 6 7 7 7 7 8 8 9 10 10 11 11
6 7 7 6 6 6 6 5 5 6 7 7 7 7 8 9 9 10 10 10 10 10 10 9 9 9 8 8 7 7 6 5 5 5 5 6 6 7 8 9 9 10 10
6 7 6 6 5 6 5 5 5 5 6 6 7 7 8 8 9 9 9 9 9 9 9 9 9 8 8 7 7 6 6 5 4 4 4 4 5 6 7 7 8 8 9
6 6 6 6 5 6 6 6 6 6 6 7 7 8 8 9 9 9 9 9 9 9 9 9 9 8 8 7 7 6 5 5 4 3 3 3 4 4 5 5 6 7 8
6 6 5 5 5 6 6 6 6 7 7 7 8 8 9 9 10 10 10 9 10 10 10 9 9 9 9 8 7 6 6 5 4 3 2 1 2 3 4 4 5 6 7
6 6 6 6 6 7 7 7 8 8 8 9 9 10 10 11 12 11 11 11 11 11 11 10 10 10 10 9 8 8 7 6 6 4 3 1 1 2 3 4 5 6 6
6 7 7 7 8 8 8 8 8 9 9 10 11 11 12 12 13 13 12 12 12 12 12 12 12 12 12 11 11 10 9 8 7 6 5 4 3 3 4 4 5 5 6
8 8 8 8 9 10 9 9 9 10 10 11 12 12 13 13 13 13 14 14 13 13 13 13 14 14 14 14 13 12 11 10 9 9 8 7 6 5 5 5 6 6 6
10 10 10 10 10 11 11 11 11 12 12 13 13 13 13 14 14 14 15 15 15 15 15 15 15 15 15 15 15 15 14 13 12 11 11 10 9 8 7 7 7 7 7
11 11 11 12 12 11 11 12 12 13 14 15 15 15 15 15 16 16 17 17 17 16 16 16 16 16 17 17 17 17 16 15 14 14 13 13 12 11 10 9 9 9 8
13 13 13 13 13 12 13 13 14 15 16 16 17 17 17 18 18 18 18 19 19 19 18 18 18 18 18 19 19 19 19 18 17 16 16 16 15 14 13 12 12 11 10
15 16 14 13 14 15 16 16 17 18 18 19 19 20 20 21 21 21 21 21 21 21 21 21 21 20 20 21 22 21 21 21 19 18 18 18 18 17 16 15 14 14 13
17 16 15 16 16 17 19 19 20 20 21 22 22 23 23 23 24 24 24 24 24 24 23 23 22 23 22 23 24 24 23 23 22 21 21 21 21 20 19 18 17 17 15
19 18 19 19 19 20 22 22 23 23 23 24 25 25 26 27 26 27 27 27 27 27 26 25 25 25 25 25 26 26 26 25 25 24 24 24 24 23 22 21 20 19 18
20 21 23 22 23 24 24 26 25 26 26 27 28 28 28 28 29 29 29 29 30 29 28 26 26 26 27 26 26 27 28 27 26 27 26 26 25 24 24 23 22 21 20
23 25 24 23 25 26 27 28 28 28 28 29 29 30 30 31 31 31 31 30 30 30 29 28 27 27 27 28 28 28 29 29 29 29 28 27 26 25 25 25 25 24 23
26 25 26 27 27 27 29 29 29 30 31 31 31 31 32 32 33 33 33 32 31 30 30 30 29 29 30 29 29 30 30 29 29 29 29 29 28 27 26 26 26 25 24
25 26 27 27 28 29 30 31 31 32 33 33 33 34 34 34 35 34 33 31 31 31 31 31 31 30 30 30 30 30 30 31 30 30 30 30 30 28 27 27 27 26 26
25 26 27 28 28 30 31 31 32 33 34 34 35 35 35 35 35 34 33 32 32 32 32 32 32 31 31 30 30 30 30 30 31 31 30 31 30 29 28 27 26 26 26
24 26 27 28 29 30 31 32 33 34 35 36 36 37 37 37 37 36 35 35 35 34 33 33 32 32 32 31 31 31 31 30 30 31 31 31 31 30 28 27 26 26 26
23 25 26 28 29 31 32 33 34 35 37 37 37 38 38 38 38 38 37 37 37 36 35 34 33 33 32 33 33 32 30 29 29 30 31 31 31 29 28 28 27 27 26
23 25 26 28 29 31 33 34 35 36 37 38 39 39 39 39 39 39 39 38 38 37 36 36 34 34 34 33 33 32 32 29 28 29 31 32 31 30 30 29 28 28 27
21 23 25 28 30 32 34 35 36 37 38 39 40 40 41 41 40 39 39 39 38 37 37 37 36 35 33 33 33 32 31 30 28 28 30 31 32 32 30 30 30 29 28
20 22 24 27 29 32 34 36 37 38 39 40 40 41 41 41 40 40 40 39 38 37 37 37 37 36 35 34 34 34 33 32 31 29 30 31 32 32 31 31 31 30 29
20 22 24 27 29 31 33 35 36 37 38 39 40 41 41 41 40 40 40 39 38 38 37 37 37 36 35 35 35 34 34 33 32 31 31 32 32 32 32 32 32 32 31
22 24 27 28 30 32 34 35 36 37 38 39 39 40 40 39 39 39 39 39 38 38 38 38 38 37 36 36 36 36 35 36 34 33 33 34 34 34 33 33 34 34 33

GEFSSE_500_meanwind_078.txt.gz
Wind_Speed
5 5 5 5 5 6 6 7 7 7 7 8 8 8 8 9 9 10 10 10 10 10 10 10 10 10 9 9 9 8 7 7 6 6 6 7 7 7 7 7 8 9 9
5 5 5 4 4 5 6 6 6 6 6 6 6 6 6 7 7 7 8 8 8 7 7 7 8 8 8 8 7 7 6 6 6 5 6 6 6 6 6 7 7 8 9
5 4 4 4 4 5 5 5 5 5 5 5 5 5 5 5 6 6 6 6 6 6 6 6 6 6 6 6 5 5 5 5 4 4 4 5 5 6 6 6 7 8 9
5 4 4 4 4 4 4 5 5 5 5 5 5 5 5 6 6 6 6 6 6 6 6 5 5 5 4 4 4 3 3 2 2 3 3 4 5 6 6 6 7 7 8
5 5 5 5 4 4 4 4 5 5 5 5 6 6 7 7 8 8 7 7 7 7 7 6 6 5 5 4 3 2 1 0 1 2 3 4 5 6 6 6 7 7 8
5 5 5 5 5 5 5 6 5 5 5 6 6 7 8 8 9 9 9 9 9 8 8 8 8 7 7 6 5 5 4 3 3 3 3 4 5 6 6 6 7 7 8
7 7 6 6 6 7 7 7 7 6 7 7 8 8 9 10 10 11 11 11 11 10 10 10 10 10 9 9 8 8 7 6 5 5 5 5 5 6 6 6 7 7 8
8 9 8 8 8 8 8 8 8 8 8 9 9 10 10 11 12 12 12 13 13 13 12 12 12 12 12 12 11 11 10 9 8 7 7 7 7 7 7 7 7 7 8
9 10 11 11 10 10 9 9 9 9 10 10 10 11 11 12 13 13 14 14 14 14 14 14 14 14 14 14 13 13 13 12 11 10 9 9 9 9 8 8 8 8 9
11 11 12 12 12 12 11 11 11 11 12 12 12 12 13 14 14 15 15 16 16 16 16 16 16 16 16 16 15 15 15 14 14 13 12 12 11 11 11 10 10 10 10
14 14 14 14 14 14 14 13 12 13 14 14 14 15 15 15 16 17 17 17 18 18 18 19 19 18 17 18 17 17 17 17 16 16 15 14 14 14 13 13 12 12 12
15 16 17 16 16 16 17 16 16 16 16 17 17 17 18 18 18 19 20 20 20 21 21 21 21 21 20 20 19 19 19 19 19 19 18 18 17 17 16 15 15 14 14
18 19 19 18 18 18 18 19 20 21 20 19 20 21 20 21 21 21 22 22 23 23 24 24 23 23 23 23 23 21 21 22 21 20 20 20 20 20 19 18 17 17 17
19 20 21 20 20 20 21 22 23 23 23 22 22 23 24 24 24 24 24 24 25 26 26 26 26 26 26 26 25 24 24 23 24 23 23 22 22 23 22 21 20 20 19
20 20 22 22 21 21 22 23 23 25 26 25 26 25 26 26 25 25 26 27 27 27 28 28 27 28 27 27 27 27 26 25 25 25 25 25 24 24 25 25 24 22 22
22 22 21 23 23 23 23 24 24 25 24 25 24 25 26 27 28 27 27 28 29 28 27 28 28 29 28 29 29 29 28 27 26 26 27 28 28 26 26 27 26 25 24
21 21 21 22 22 22 22 23 23 24 25 25 25 26 26 27 28 28 30 31 30 30 30 29 29 29 29 30 30 31 30 29 29 28 29 30 30 28 27 28 28 27 26
19 20 20 20 20 20 22 23 24 24 25 26 26 27 28 29 30 30 30 31 30 31 31 30 29 30 30 30 31 31 31 30 29 29 29 30 31 30 29 30 30 28 28
19 19 19 19 20 21 22 23 24 25 26 26 27 28 29 30 31 31 32 32 32 31 31 31 31 32 31 30 30 31 32 32 31 31 30 30 31 32 32 32 31 31 31
17 18 19 19 21 21 22 23 25 26 27 28 29 30 31 32 32 32 33 33 33 33 33 33 34 33 33 32 32 32 32 33 33 32 31 31 31 31 32 33 33 33 33
16 17 18 19 20 21 23 24 26 28 29 31 32 33 33 33 34 34 35 35 35 35 35 35 35 35 34 34 34 33 32 33 33 32 31 31 31 32 33 33 33 34 34
16 17 18 19 21 23 24 26 28 30 31 33 34 35 35 36 36 36 37 37 37 37 37 36 36 36 35 35 34 33 33 34 34 33 33 32 32 33 33 34 34 34 34
15 17 19 21 23 25 27 29 31 32 33 34 35 36 37 37 38 38 37 37 37 37 37 37 37 36 36 36 35 34 33 33 34 34 34 33 32 33 33 34 35 36 36
16 19 20 22 24 27 29 31 32 33 34 35 36 37 38 38 39 39 38 38 37 37 37 37 37 37 36 36 35 35 35 35 35 35 35 35 35 34 34 36 36 37 37
17 19 21 23 25 27 29 31 32 34 35 36 36 37 37 37 37 38 37 37 36 36 36 37 37 37 36 36 36 36 36 35 35 36 36 36 35 34 34 36 37 38 38
19 21 23 25 27 29 30 32 33 34 35 36 36 36 36 35 35 35 35 35 35 35 35 35 35 36 36 36 37 37 37 37 36 36 36 35 35 35 35 36 37 39 39

GEFSSE_500_meanwind_084.txt.gz
Wind_Speed
3 3 3 2 1 1 1 1 2 2 3 4 5 5 6 6 6 6 6 6 6 6 6 6 6 5 5 5 5 4 4 4 4 4 5 5 5 5 5 5 5 6 6
2 2 2 1 0 1 1 1 1 0 1 2 2 3 3 3 4 4 4 4 4 4 4 4 3 3 3 3 3 3 3 3 3 3 4 4 5 5 5 5 5 5 6
1 1 1 1 0 1 2 2 2 2 1 1 0 1 1 1 1 1 1 2 2 1 1 1 1 1 1 1 2 2 2 2 3 3 3 4 5 5 5 5 5 5 5
1 1 1 1 1 2 3 4 4 4 4 3 2 2 2 2 2 2 2 1 1 1 2 2 2 2 2 2 2 2 3 3 3 3 3 4 4 5 5 5 5 5 5
1 2 2 3 3 4 5 6 6 6 6 6 5 5 4 4 4 3 3 3 3 3 3 3 4 4 4 4 4 4 4 4 4 4 4 4 5 5 5 5 5 6 6
2 3 4 5 5 6 7 7 8 8 8 8 8 7 7 6 6 6 5 5 5 5 5 5 6 6 6 6 6 6 6 5 6 6 6 6 6 6 6 6 6 6 7
5 5 6 7 8 9 9 9 9 9 9 9 10 9 9 9 8 8 7 7 7 7 7 7 7 8 8 8 8 8 8 8 7 8 7 7 8 8 8 8 8 8 8
6 6 7 9 10 10 11 11 11 11 11 11 11 11 11 10 10 9 9 9 9 9 9 9 9 9 9 9 10 10 10 10 10 10 10 10 10 10 10 10 10 10 9
6 7 9 10 11 12 12 12 13 13 13 13 13 13 13 12 12 12 12 11 11 11 11 11 10 11 11 11 11 12 12 13 12 12 12 12 12 12 12 12 12 11 11
9 10 11 12 12 13 14 15 15 15 15 15 15 15 15 15 15 15 14 14 13 13 13 13 12 13 13 13 13 13 14 14 15 15 15 15 15 15 15 14 14 14 13
11 12 13 14 15 15 16 16 17 17 17 18 18 18 18 18 18 17 17 16 16 16 16 15 15 15 15 15 15 16 16 16 16 17 17 17 17 17 17 17 16 16 15
13 14 15 16 18 18 18 19 19 19 20 20 21 22 21 21 21 20 19 19 18 18 18 18 18 17 17 17 17 17 18 18 18 18 19 19 19 20 20 19 19 18 18
15 16 17 18 19 20 20 22 22 22 22 22 22 23 23 23 23 22 21 22 21 21 21 21 20 20 20 19 19 19 20 20 20 20 20 21 21 21 22 22 22 21 20
17 18 19 19 20 21 21 23 23 23 22 22 22 22 23 23 22 23 23 23 23 23 22 22 21 21 21 21 20 20 20 21 23 23 22 23 23 23 23 24 24 24 23
19 20 20 21 21 22 23 24 24 24 23 22 22 22 22 21 21 22 23 24 24 24 23 23 23 22 21 21 21 21 21 22 22 24 24 24 25 26 25 25 26 26 26
21 21 21 22 22 21 21 21 21 22 21 21 21 22 23 22 22 22 21 22 23 23 23 24 24 24 24 23 23 23 23 24 24 25 26 26 27 27 28 28 27 28 27
20 21 22 21 20 21 21 20 19 19 21 20 19 19 20 20 21 22 23 23 24 25 25 25 25 25 26 25 25 25 25 25 26 27 27 27 28 29 30 30 30 29 30
19 19 19 19 18 18 18 18 18 19 19 19 19 20 20 22 23 23 24 24 25 26 27 27 26 26 26 27 28 27 26 26 27 27 27 28 28 29 31 31 32 32 32
18 17 17 17 17 16 16 17 17 18 19 20 20 21 23 23 24 25 26 26 26 27 28 28 28 28 28 28 29 29 28 28 29 28 28 29 30 29 31 33 33 34 34
17 16 16 16 15 15 15 16 17 18 19 20 21 23 24 24 26 27 27 28 28 29 30 30 30 30 30 30 30 31 30 30 30 30 29 30 30 31 31 32 34 35 36
13 13 13 14 15 15 16 17 18 20 21 22 23 24 25 26 27 28 29 29 30 30 31 31 32 32 32 32 33 33 33 33 32 33 32 32 32 33 32 33 34 35 36
12 13 13 14 15 16 18 19 20 22 23 24 25 26 27 28 29 30 30 31 31 31 31 32 32 33 33 33 34 34 34 35 34 34 35 34 34 34 34 33 34 34 35
11 12 13 14 15 17 19 21 23 24 25 26 27 28 29 30 31 31 31 32 32 32 32 32 32 33 33 33 34 34 34 35 36 35 35 36 35 35 35 34 35 35 35
11 12 13 15 17 19 21 23 24 26 27 29 30 30 30 31 31 31 31 31 31 32 32 32 33 33 33 33 33 34 35 35 35 35 36 36 36 36 36 36 36 36 37
12 14 16 17 19 21 23 24 26 27 29 29 30 30 30 30 30 31 31 31 31 31 31 32 32 33 33 33 33 34 34 35 35 35 36 37 37 38 38 37 37 37 37
14 16 18 19 21 23 24 25 27 28 28 28 28 29 30 30 30 30 30 30 31 31 31 31 32 32 32 33 33 34 34 34 35 36 36 37 38 39 39 39 38 38 38

GEFSSE_500_meanwind_090.txt.gz
Wind_Speed
2 1 1 1 0 1 1 2 3 3 3 4 4 4 3 3 3 3 3 4 4 4 4 4 4 4 4 4 4 3 3 3 3 3 3 4 4 5 5 5 6 6 7
2 2 2 1 1 1 2 3 3 4 4 4 4 5 5 5 5 4 4 4 4 3 3 4 3 3 3 3 3 2 2 2 3 2 2 2 3 3 4 4 5 6 6
3 3 3 2 1 2 3 4 4 5 5 5 5 6 6 6 6 6 6 5 5 4 4 4 4 4 3 3 3 2 2 2 2 1 1 1 2 2 3 4 4 5 5
5 4 3 3 3 3 4 5 6 6 6 7 7 7 7 7 8 8 7 7 6 5 5 5 5 4 4 4 4 3 3 3 2 2 2 1 1 2 2 3 4 4 4
5 5 4 4 5 5 6 7 8 8 8 9 9 9 9 9 9 9 9 8 8 7 7 6 6 6 6 5 5 5 5 4 3 3 3 2 1 2 2 2 3 3 3
6 5 5 6 6 7 7 8 9 9 10 10 11 11 11 11 10 10 10 10 9 9 8 8 8 7 7 7 7 7 7 6 5 5 4 3 3 2 2 2 2 2 3
7 7 6 7 8 8 8 9 10 11 11 12 12 12 12 12 12 11 11 11 11 11 10 10 9 9 8 8 8 8 8 8 7 6 6 5 5 4 4 3 3 3 3
7 8 7 8 8 9 10 10 11 12 13 13 14 14 14 13 13 13 13 13 13 13 12 12 12 11 11 10 10 10 10 10 9 8 8 7 7 6 6 5 5 4 4
7 8 8 9 9 10 11 12 13 13 14 15 15 15 15 15 15 15 15 15 15 14 14 14 14 14 13 13 12 11 11 11 11 11 10 10 9 8 8 7 7 6 6
8 8 9 10 11 12 13 14 15 15 16 16 16 17 17 18 18 18 18 18 17 17 16 16 16 16 15 15 14 13 13 13 13 12 12 12 11 11 10 10 9 8 8
9 10 10 11 12 14 15 16 18 18 18 18 19 20 21 21 21 21 20 19 19 19 18 18 18 18 17 17 17 16 16 16 15 14 14 15 14 13 13 12 12 11 10
12 12 12 13 14 15 17 18 19 19 19 20 22 23 23 23 24 22 21 20 20 21 20 20 20 20 19 19 19 19 18 18 17 17 17 16 16 16 15 15 15 14 13
13 14 13 15 16 17 18 19 19 19 20 21 23 23 23 23 24 24 22 21 20 19 20 21 21 21 20 20 20 20 20 19 18 18 17 18 18 18 18 17 17 17 17
15 15 15 16 18 19 20 20 20 19 21 21 21 22 21 21 20 21 21 20 19 19 18 19 21 20 21 21 21 21 21 20 20 18 18 19 19 19 20 20 20 19 20
16 16 16 17 18 20 21 21 19 20 20 20 19 19 19 19 19 20 19 18 18 18 18 18 19 20 19 19 19 20 20 20 20 20 20 20 20 20 21 23 22 22 21
15 17 17 18 18 19 20 21 19 19 19 18 17 18 19 19 19 19 19 18 19 19 18 19 20 21 20 20 20 20 21 22 22 22 22 22 22 22 22 23 24 25 24
17 18 18 18 18 19 19 19 17 18 17 17 17 18 19 19 20 19 19 20 20 20 21 21 21 21 21 21 22 22 22 22 23 24 23 23 24 24 25 25 26 27 27
16 17 17 18 19 19 17 16 15 17 16 17 18 18 18 19 20 20 20 21 21 22 22 23 23 22 23 24 24 24 24 24 25 25 25 24 25 25 26 27 27 28 29
15 15 15 16 16 16 16 15 15 16 16 17 18 19 19 20 21 22 23 22 23 23 24 24 24 24 25 25 26 26 26 26 26 26 27 27 27 26 26 28 28 29 30
14 14 14 14 14 14 14 15 16 17 18 18 19 20 21 22 23 24 25 25 25 26 26 26 26 26 27 27 27 27 27 27 27 28 29 29 28 28 28 28 28 29 30
13 13 13 14 14 15 14 15 17 17 18 19 20 21 23 24 25 26 27 27 27 27 27 27 27 27 27 28 28 28 28 28 28 28 29 30 30 30 30 30 29 29 30
11 12 12 14 14 15 16 16 17 17 19 21 22 23 24 25 26 27 27 27 27 27 27 27 27 27 27 27 27 28 28 29 30 29 30 31 31 31 31 32 31 31 31
11 12 13 13 15 15 16 16 17 19 21 22 23 24 25 25 26 26 26 27 27 27 27 27 27 27 27 28 27 28 28 29 30 30 31 31 32 32 32 33 34 33 32
11 12 12 13 14 15 16 17 19 20 22 23 24 24 24 25 25 26 26 27 27 27 27 27 27 27 27 27 27 28 29 29 30 30 32 32 32 32 33 33 34 34 34
9 10 11 13 15 16 17 19 20 22 23 23 24 24 25 25 26 26 26 26 26 26 27 27 27 27 27 28 28 28 29 29 30 31 31 32 32 32 33 34 35 34 35
9 11 12 14 16 17 18 19 20 22 23 23 24 24 25 26 26 26 26 26 26 27 27 27 27 28 28 29 29 29 29 30 30 31 32 33 33 33 34 34 35 36 35

GEFSSE_500_meanwind_096.txt.gz
Wind_Speed
1 1 2 2 3 3 3 3 4 4 4 5 5 6 6 7 7 7 7 7 6 6 6 6 5 5 5 5 5 5 5 5 5 6 5 5 6 6 7 8 9 9 9
2 1 1 2 2 3 2 2 2 3 3 4 5 6 6 7 7 8 8 7 7 6 6 6 5 5 5 5 4 4 4 4 5 5 5 5 5 5 6 7 8 9 9
3 2 2 3 3 3 2 1 0 2 3 4 5 6 6 7 7 8 8 8 7 7 6 6 6 5 5 4 4 3 3 3 4 4 4 4 4 5 5 6 7 8 8
3 3 4 4 3 3 3 2 2 2 3 5 5 6 6 7 8 8 8 8 8 7 7 7 6 6 5 5 4 3 2 2 2 2 3 3 3 4 4 5 7 7 7
4 5 5 5 4 4 4 3 3 3 4 5 6 6 7 7 8 8 8 8 8 8 8 8 7 6 6 5 5 4 3 2 2 1 1 2 2 3 3 5 6 6 7
5 5 6 6 5 4 4 4 4 4 4 5 6 6 7 8 8 9 9 9 9 9 9 9 9 8 7 6 6 5 4 4 3 2 1 1 2 2 3 4 4 6 6
6 6 6 6 5 5 4 3 4 4 5 5 6 7 7 8 9 9 9 10 10 10 11 11 10 10 9 8 7 6 5 5 4 4 3 2 2 3 4 4 4 5 6
7 6 6 6 6 5 4 4 5 5 6 7 8 8 9 10 10 10 11 12 12 12 12 12 12 12 11 9 8 7 7 6 6 6 5 5 5 4 4 5 5 5 6
8 7 6 6 6 5 4 4 5 6 7 8 10 11 11 12 12 13 14 14 14 14 14 14 14 13 13 11 10 9 8 8 7 7 7 7 7 7 6 6 7 7 7
8 8 7 6 6 6 6 6 7 8 9 11 12 12 13 14 14 15 16 17 16 16 16 16 16 16 15 14 13 11 10 10 9 9 9 9 9 9 9 9 8 8 8
9 8 7 6 6 7 8 8 8 10 12 13 13 14 15 15 15 16 17 18 18 17 17 17 18 17 17 16 16 14 12 12 12 12 12 12 11 11 12 11 11 10 10
10 8 8 6 7 7 8 9 10 12 13 14 15 15 16 16 16 17 17 16 17 17 17 17 17 18 18 18 18 16 14 14 14 14 14 15 15 14 14 14 13 13 12
11 9 8 7 7 8 9 10 11 12 14 15 15 14 14 14 16 16 15 15 15 15 16 16 16 16 17 18 19 18 17 16 16 16 16 17 17 17 16 16 16 15 14
11 9 7 7 7 8 9 10 11 12 13 14 13 13 13 13 13 14 13 13 13 14 14 15 14 15 16 17 18 18 18 18 17 17 17 18 18 18 18 18 18 17 16
10 10 8 8 8 9 9 10 11 12 13 12 12 12 12 12 12 12 12 12 11 12 13 14 15 15 16 16 17 18 19 18 18 18 18 17 18 19 19 18 19 19 19
9 9 8 7 7 8 10 10 10 10 10 9 10 11 10 10 10 10 11 11 11 12 13 14 15 16 16 16 17 18 19 19 19 19 19 18 18 19 20 19 20 20 21
7 7 6 6 7 8 9 9 9 9 8 9 9 10 10 10 10 11 12 12 12 13 14 15 16 17 17 18 18 18 20 20 20 20 20 19 20 20 20 21 22 22 23
7 6 5 5 6 8 8 8 9 9 9 9 9 10 10 11 11 12 13 14 14 15 15 16 17 18 19 19 19 19 20 21 22 22 22 21 22 21 21 21 22 24 25
7 5 4 4 5 6 7 7 8 8 9 9 10 11 11 12 12 13 14 14 16 16 17 17 18 18 19 20 20 21 21 22 23 23 23 23 23 23 24 24 24 24 26
6 4 3 3 5 5 6 6 7 8 9 10 11 11 12 13 14 15 15 16 17 17 18 18 18 18 19 19 20 21 22 23 23 24 24 25 25 25 26 26 26 25 26
5 4 3 4 4 5 6 7 8 8 9 10 10 11 12 13 14 15 16 17 17 18 18 18 18 19 19 19 20 21 22 23 24 24 25 25 26 27 27 28 28 28 28
4 3 3 4 4 6 6 7 8 8 9 9 10 11 12 13 14 15 15 16 17 17 18 18 19 19 20 20 20 21 22 23 24 24 25 26 27 27 28 29 29 30 30
2 2 3 4 4 5 6 7 8 8 8 9 10 11 12 13 14 15 16 17 17 18 18 18 18 19 20 21 21 21 21 22 24 24 25 26 27 28 28 30 30 31 32
0 0 2 3 4 4 5 6 7 8 9 9 10 11 12 13 15 16 16 17 18 18 18 18 18 19 19 20 21 21 22 22 24 25 25 26 27 28 29 30 31 31 32
0 1 1 2 3 4 5 6 7 8 9 9 10 11 12 13 15 16 17 17 18 18 19 19 20 20 20 21 22 22 23 24 24 25 26 27 27 28 29 30 31 32 33
0 1 2 3 4 4 5 6 7 8 9 10 11 12 13 15 16 17 17 18 19 20 20 21 21 22 22 22 23 23 24 25 25 26 27 28 29 29 30 30 31 33 34

GEFSSE_500_meanwind_102.txt.gz
Wind_Speed
2 2 2 2 2 3 5 7 8 8 8 8 8 8 8 8 8 8 8 8 8 8 8 8 7 7 7 7 6 6 6 6 6 6 6 6 6 6 7 8 8 9 9
3 3 3 3 3 3 4 6 6 6 6 6 6 6 6 7 7 7 8 7 8 8 7 7 7 7 6 6 6 5 5 5 5 5 6 5 5 6 6 7 8 8 9
4 4 4 4 4 3 3 4 4 4 4 4 5 5 5 6 6 7 7 7 7 7 7 7 7 6 6 5 5 4 3 4 4 4 4 5 5 5 6 7 7 8 9
5 5 5 6 5 4 3 3 2 2 2 3 4 4 5 6 6 6 7 7 7 7 7 6 7 6 6 5 4 3 2 2 3 3 3 4 4 5 6 6 7 8 8
6 7 7 7 6 5 4 2 1 0 1 2 3 4 5 5 6 7 7 7 7 7 7 6 6 6 6 5 4 3 1 0 1 1 2 3 4 5 6 6 7 7 7
7 9 8 7 6 6 4 3 2 1 1 2 3 4 5 6 6 7 8 8 8 7 7 7 7 7 6 5 4 3 2 2 1 1 2 3 4 5 6 5 6 7 7
9 10 10 8 7 6 5 4 3 2 2 3 3 5 6 7 8 9 9 9 9 9 8 8 7 7 7 6 5 4 3 2 3 2 2 3 4 5 6 6 6 6 7
12 11 11 10 8 7 7 6 5 4 3 3 4 6 7 9 10 10 11 11 11 10 10 10 9 8 8 7 6 5 5 4 4 4 4 4 4 5 6 7 7 7 7
13 13 13 11 10 9 8 7 5 4 4 4 5 6 8 9 11 11 12 12 12 12 12 12 11 10 9 9 8 7 6 6 5 5 5 5 6 6 7 7 7 8 8
14 14 13 12 11 9 8 7 6 6 6 6 7 8 9 11 12 13 13 13 14 14 14 13 12 11 10 10 10 9 8 7 7 6 7 7 7 8 8 9 9 9 9
15 15 14 12 12 11 9 8 8 7 7 8 9 9 10 12 12 14 14 14 15 15 14 14 13 12 12 11 11 11 10 9 9 9 9 9 9 10 10 10 11 11 11
16 16 16 14 13 12 10 9 8 8 8 8 9 9 10 12 12 13 14 15 15 15 14 14 13 13 13 12 12 11 11 11 11 11 11 12 12 12 13 13 13 13 13
18 18 16 16 14 13 11 9 9 9 9 9 10 10 10 11 12 12 13 14 14 15 14 13 14 13 13 13 12 12 12 12 13 13 13 13 14 14 15 15 15 16 16
18 18 17 16 15 14 12 11 10 10 10 10 10 11 11 11 11 11 12 13 13 13 12 12 12 13 12 12 12 12 12 12 13 14 14 14 15 16 16 17 17 18 18
19 19 18 17 16 14 12 12 10 10 10 10 11 10 10 10 10 11 12 12 13 12 12 12 12 13 13 13 13 12 12 12 13 14 15 15 16 16 17 18 19 20 20
18 20 19 19 18 15 13 12 12 11 11 11 10 10 10 10 10 11 11 12 13 12 13 13 14 14 14 14 14 14 14 14 14 15 16 16 17 17 17 17 18 21 21
19 21 20 18 17 15 13 12 11 10 11 10 10 10 9 9 10 10 11 12 13 13 13 14 14 15 16 16 16 16 16 17 17 17 17 17 18 18 18 18 19 20 22
17 19 18 16 15 13 11 10 9 9 9 9 8 8 8 9 10 11 12 13 13 14 14 14 15 15 16 16 17 17 17 17 18 18 19 19 19 20 20 20 20 21 23
15 15 16 15 13 12 10 9 8 7 7 7 7 8 9 10 11 11 12 13 14 14 15 15 16 16 16 16 17 17 18 18 18 18 19 20 21 22 22 22 22 22 23
14 14 14 14 13 11 9 8 7 6 5 5 7 8 9 10 10 11 12 13 14 14 15 15 15 16 16 17 17 18 19 19 19 18 19 20 21 22 22 23 24 24 24
13 14 14 13 12 10 9 7 6 5 5 5 6 7 8 9 10 11 12 13 13 14 14 15 15 16 16 17 17 18 19 19 19 19 19 20 21 22 23 24 25 26 26
11 12 11 11 11 9 7 6 5 5 5 5 6 6 7 8 9 10 11 11 12 13 14 15 15 16 16 17 17 18 19 19 19 20 20 21 22 23 24 24 26 27 28
10 10 9 10 8 7 6 5 4 4 4 4 4 5 6 7 8 9 10 11 12 13 14 15 15 16 16 17 18 18 19 20 21 21 21 21 22 23 24 25 26 27 28
9 9 8 8 7 7 6 5 4 3 3 3 4 5 6 7 8 9 10 11 12 13 14 14 15 16 16 17 18 19 20 21 22 22 23 23 23 24 25 26 27 27 28
9 8 8 7 6 6 5 5 4 3 3 3 3 4 5 6 7 9 10 11 12 13 14 15 15 16 17 18 19 19 20 21 22 23 24 25 25 26 26 27 28 29 29
8 7 7 6 6 6 5 4 3 3 3 3 3 4 5 6 8 10 11 12 13 14 15 16 17 18 18 19 20 21 21 22 23 24 25 26 27 27 28 29 30 31 31